Camden, SC

12:42 AM EDT on August 27, 2016 (GMT -0400)
Woodward

Weather History for KCDN - March, 2013

Change the Weather History Date:

Friday, March 29, 2013

  Actual Average (KSSC) Record (KSSC)
Temperature  
Mean Temperature 47 °F -  
Max Temperature 64 °F 69 °F 85 °F (2012)
Min Temperature 30 °F 45 °F 28 °F (2015)
Degree Days  
Heating Degree Days 18    
Moisture  
Dew Point 28 °F    
Average Humidity 50    
Maximum Humidity 87    
Minimum Humidity 22    
Precipitation  
Precipitation 0.00 in - - ()
Sea Level Pressure  
Sea Level Pressure 30.30 in    
Wind  
Wind Speed 2 mph (West)    
Max Wind Speed 10 mph    
Max Gust Speed 17 mph    
Visibility 10 miles    
Events      
Averages and records for this station are not official NWS values.
T = Trace of Precipitation, MM = Missing Value Source: NWS Daily Summary

Daily Weather History Graph

Daily Weather History Graph

Search for Another Location

Airport or City:

Trip Planner

Search our weather history database for the weather conditions in past years. The results will help you decide how hot, cold, wet, or windy it might be!

Date:

Astronomy

Mar. 29, 2013 Rise Set
Actual Time 7:13 AM EDT 7:41 PM EDT
Civil Twilight 6:48 AM EDT 8:06 PM EDT
Nautical Twilight 6:18 AM EDT 8:35 PM EDT
Astronomical Twilight 5:48 AM EDT 9:06 PM EDT
Moon 10:30 PM EDT (3/29) 8:28 AM EDT (3/29)
Length of Visible Light 13h 18m
Length of Day
12h 27m
Waning Gibbous, 93% of the Moon is Illuminated
Mar 29
Waning Gibbous
Apr 3
Last Quarter
Apr 10
New
Apr 18
First Quarter
Apr 25
Full

Hourly Weather History & Observations

Time (EDT) Temp. Dew Point Humidity Pressure Visibility Wind Dir Wind Speed Gust Speed Precip Events Conditions
12:15 AM 39.2 °F 30.2 °F 70% 30.31 in 10.0 mi Calm Calm - 0.00 in   Clear
12:55 AM 35.6 °F 28.4 °F 75% 30.31 in 10.0 mi Calm Calm - 0.00 in   Clear
1:15 AM 37.4 °F 30.2 °F 75% 30.31 in 10.0 mi Calm Calm - 0.00 in   Clear
1:35 AM 35.6 °F 30.2 °F 81% 30.31 in 10.0 mi Calm Calm - 0.00 in   Clear
1:55 AM 35.6 °F 30.2 °F 81% 30.32 in 10.0 mi Calm Calm - 0.00 in   Clear
2:15 AM 35.6 °F 30.2 °F 81% 30.32 in 10.0 mi Calm Calm - 0.00 in   Clear
2:35 AM 35.6 °F 26.6 °F 70% 30.32 in 10.0 mi Calm Calm - 0.00 in   Clear
2:55 AM 33.8 °F 28.4 °F 81% 30.32 in 10.0 mi Calm Calm - 0.00 in   Clear
3:15 AM 32.0 °F 28.4 °F 87% 30.32 in 10.0 mi Calm Calm - 0.00 in   Clear
3:35 AM 32.0 °F 28.4 °F 87% 30.32 in 10.0 mi Calm Calm - 0.00 in   Clear
3:55 AM 33.8 °F 26.6 °F 75% 30.32 in 10.0 mi Calm Calm - 0.00 in   Clear
4:15 AM 32.0 °F 28.4 °F 87% 30.32 in 10.0 mi Calm Calm - 0.00 in   Clear
4:35 AM 32.0 °F 28.4 °F 87% 30.32 in 10.0 mi Calm Calm - 0.00 in   Clear
4:55 AM 32.0 °F 28.4 °F 87% 30.32 in 9.0 mi Calm Calm - 0.00 in   Clear
5:15 AM 32.0 °F 26.6 °F 80% 30.33 in 10.0 mi Calm Calm - 0.00 in   Clear
5:35 AM 30.2 °F 26.6 °F 86% 30.33 in 10.0 mi Calm Calm - 0.00 in   Clear
5:55 AM 30.2 °F 26.6 °F 86% 30.33 in 10.0 mi Calm Calm - 0.00 in   Clear
6:15 AM 32.0 °F 26.6 °F 80% 30.33 in 10.0 mi Calm Calm - 0.00 in   Clear
6:35 AM 32.0 °F 26.6 °F 80% 30.34 in 10.0 mi Calm Calm - 0.00 in   Clear
6:55 AM 32.0 °F 26.6 °F 80% 30.34 in 10.0 mi Calm Calm - 0.00 in   Clear
7:15 AM 32.0 °F 26.6 °F 80% 30.35 in 10.0 mi Calm Calm - 0.00 in   Clear
7:35 AM 30.2 °F 26.6 °F 86% 30.35 in 10.0 mi Calm Calm - 0.00 in   Clear
7:55 AM 32.0 °F 28.4 °F 87% 30.36 in 10.0 mi Calm Calm - 0.00 in   Clear
8:15 AM 33.8 °F 28.4 °F 81% 30.36 in 10.0 mi Calm Calm - 0.00 in   Clear
8:35 AM 37.4 °F 28.4 °F 70% 30.36 in 10.0 mi Calm Calm - 0.00 in   Clear
8:55 AM 41.0 °F 30.2 °F 65% 30.37 in 10.0 mi Calm Calm - 0.00 in   Clear
9:15 AM 44.6 °F 28.4 °F 53% 30.37 in 10.0 mi Calm Calm - 0.00 in   Clear
9:35 AM 46.4 °F 28.4 °F 50% 30.37 in 10.0 mi Calm Calm - 0.00 in   Clear
9:55 AM 48.2 °F 26.6 °F 43% 30.37 in 10.0 mi Calm Calm - 0.00 in   Clear
10:15 AM 50.0 °F 28.4 °F 43% 30.37 in 10.0 mi SE 3.5 mph - 0.00 in   Clear
10:35 AM 51.8 °F 28.4 °F 41% 30.37 in 10.0 mi SE 3.5 mph - 0.00 in   Clear
10:55 AM 53.6 °F 26.6 °F 35% 30.36 in 10.0 mi NE 3.5 mph - 0.00 in   Clear
11:15 AM 53.6 °F 23.0 °F 30% 30.36 in 10.0 mi ENE 3.5 mph - 0.00 in   Clear
11:35 AM 53.6 °F 24.8 °F 33% 30.36 in 10.0 mi SE 3.5 mph - 0.00 in   Clear
11:55 AM 55.4 °F 24.8 °F 31% 30.36 in 10.0 mi Calm Calm - 0.00 in   Clear
12:15 PM 55.4 °F 24.8 °F 31% 30.35 in 10.0 mi Calm Calm - 0.00 in   Clear
12:35 PM 57.2 °F 24.8 °F 29% 30.34 in 10.0 mi SW 4.6 mph - 0.00 in   Clear
12:55 PM 57.2 °F 24.8 °F 29% 30.33 in 10.0 mi West 6.9 mph - 0.00 in   Clear
1:15 PM 57.2 °F 23.0 °F 27% 30.32 in 10.0 mi WSW 8.1 mph - 0.00 in   Clear
1:35 PM 59.0 °F 23.0 °F 25% 30.31 in 10.0 mi NW 5.8 mph - 0.00 in   Clear
1:55 PM 60.8 °F 23.0 °F 23% 30.30 in 10.0 mi North 4.6 mph - 0.00 in   Clear
2:15 PM 62.6 °F 24.8 °F 24% 30.28 in 10.0 mi SSW 8.1 mph - 0.00 in   Clear
2:35 PM 60.8 °F 23.0 °F 23% 30.27 in 10.0 mi West 10.4 mph - 0.00 in   Clear
2:55 PM 62.6 °F 23.0 °F 22% 30.26 in 10.0 mi WNW 6.9 mph - 0.00 in   Clear
3:15 PM 62.6 °F 24.8 °F 24% 30.24 in 10.0 mi WSW 8.1 mph - 0.00 in   Clear
3:35 PM 62.6 °F 24.8 °F 24% 30.24 in 10.0 mi WSW 3.5 mph - 0.00 in   Clear
3:55 PM 62.6 °F 24.8 °F 24% 30.23 in 10.0 mi SSW 4.6 mph - 0.00 in   Clear
4:15 PM 64.4 °F 24.8 °F 22% 30.23 in 10.0 mi West 4.6 mph 17.3 mph 0.00 in   Clear
4:35 PM 64.4 °F 26.6 °F 24% 30.23 in 10.0 mi West 9.2 mph - 0.00 in   Clear
4:55 PM 62.6 °F 26.6 °F 26% 30.22 in 10.0 mi West 5.8 mph - 0.00 in   Scattered Clouds
5:15 PM 62.6 °F 26.6 °F 26% 30.22 in 10.0 mi WNW 6.9 mph - 0.00 in   Mostly Cloudy
5:35 PM 62.6 °F 26.6 °F 26% 30.22 in 10.0 mi NW 6.9 mph - 0.00 in   Mostly Cloudy
5:55 PM 62.6 °F 28.4 °F 27% 30.22 in 10.0 mi WNW 5.8 mph - 0.00 in   Mostly Cloudy
6:15 PM 60.8 °F 26.6 °F 27% 30.22 in 10.0 mi WNW 4.6 mph - 0.00 in   Mostly Cloudy
6:35 PM 60.8 °F 28.4 °F 29% 30.22 in 10.0 mi West 4.6 mph - 0.00 in   Mostly Cloudy
6:55 PM 60.8 °F 28.4 °F 29% 30.22 in 10.0 mi WSW 4.6 mph - 0.00 in   Mostly Cloudy
7:15 PM 60.8 °F 28.4 °F 29% 30.23 in 10.0 mi West 3.5 mph - 0.00 in   Mostly Cloudy
7:35 PM 60.8 °F 30.2 °F 31% 30.23 in 10.0 mi Calm Calm - 0.00 in   Overcast
7:55 PM 60.8 °F 28.4 °F 29% 30.23 in 10.0 mi Calm Calm - 0.00 in   Mostly Cloudy
8:15 PM 59.0 °F 30.2 °F 34% 30.23 in 10.0 mi Calm Calm - 0.00 in   Mostly Cloudy
8:35 PM 59.0 °F 30.2 °F 34% 30.23 in 10.0 mi Calm Calm - 0.00 in   Mostly Cloudy
8:55 PM 57.2 °F 33.8 °F 41% 30.24 in 10.0 mi Calm Calm - 0.00 in   Mostly Cloudy
9:15 PM 55.4 °F 32.0 °F 41% 30.24 in 10.0 mi Calm Calm - 0.00 in   Mostly Cloudy
9:35 PM 55.4 °F 32.0 °F 41% 30.25 in 10.0 mi West 5.8 mph - 0.00 in   Mostly Cloudy
9:55 PM 57.2 °F 32.0 °F 38% 30.25 in 10.0 mi WNW 5.8 mph - 0.00 in   Scattered Clouds
10:15 PM 55.4 °F 33.8 °F 44% 30.25 in 10.0 mi NW 6.9 mph - 0.00 in   Partly Cloudy
10:35 PM 57.2 °F 35.6 °F 44% 30.24 in 10.0 mi NW 4.6 mph - 0.00 in   Scattered Clouds
10:55 PM 55.4 °F 35.6 °F 47% 30.25 in 10.0 mi WNW 4.6 mph - 0.00 in   Partly Cloudy
11:15 PM 55.4 °F 35.6 °F 47% 30.25 in 10.0 mi WNW 4.6 mph - 0.00 in   Clear
11:35 PM 55.4 °F 35.6 °F 47% 30.25 in 10.0 mi West 3.5 mph - 0.00 in   Clear
11:55 PM 55.4 °F 35.6 °F 47% 30.25 in 10.0 mi Calm Calm - 0.00 in   Clear